Wind_Speed
16 12 10 8 7 7 6 6 5 5 4 4 3 2 1 1 2 3 4 4 4 4 3 2 1 1 1 2 2 2 3 4 5 7 8 9 7 6 7 9 8 8 7
11 11 10 8 7 6 6 5 5 4 4 4 3 2 1 0 2 3 3 3 4 4 4 4 3 2 2 3 4 6 6 7 7 8 8 8 7 5 8 10 10 9 8
9 11 10 8 8 7 6 5 4 4 3 2 2 2 1 1 2 3 4 4 4 4 4 5 5 4 5 5 5 6 7 7 8 9 8 8 6 5 8 10 12 10 8
11 13 11 10 8 6 5 4 4 3 3 2 2 2 3 3 3 4 4 5 5 5 5 5 6 6 6 6 7 7 8 8 8 8 7 6 7 7 6 10 11 10 8
12 14 12 10 9 7 6 5 4 3 3 2 2 3 3 4 4 5 5 6 6 6 7 7 7 8 7 7 7 7 7 8 7 8 7 7 7 6 6 9 10 9 7
15 13 12 10 9 8 8 6 5 5 4 3 3 3 3 3 4 5 5 6 7 7 8 8 8 9 9 9 8 8 8 8 7 7 7 6 6 7 6 8 9 8 6
18 16 13 11 9 9 8 7 6 4 4 3 3 4 4 3 4 4 6 6 7 8 8 9 9 9 10 10 10 9 9 9 8 7 8 9 6 7 9 8 8 7 6
17 16 14 12 10 8 7 6 4 3 2 2 3 4 4 4 4 5 5 6 6 7 8 9 10 10 11 11 11 11 10 9 9 8 7 10 10 9 9 8 9 7 7
16 15 14 12 9 7 6 4 3 1 1 3 4 5 6 7 7 6 7 6 7 7 7 7 9 9 10 11 12 11 11 11 10 8 8 9 11 11 9 9 10 8 8
16 14 12 11 9 7 6 5 4 3 4 3 3 4 7 9 9 10 10 10 9 8 7 7 7 7 7 10 10 11 12 12 11 8 7 9 13 14 13 11 12 10 9
17 14 12 10 9 9 9 7 6 6 7 6 6 4 5 6 7 8 8 9 10 10 10 9 8 8 8 8 10 10 11 11 11 10 10 10 13 15 15 14 11 11 11
19 16 13 11 11 11 10 7 6 5 7 8 8 8 8 7 6 6 6 8 10 11 12 12 12 13 14 14 13 11 11 11 11 13 13 10 12 15 16 17 13 13 13
20 18 15 13 13 11 9 6 3 3 5 6 8 9 9 8 7 6 6 8 9 10 11 13 13 14 17 18 17 16 15 15 14 11 12 10 13 16 18 19 19 16 14
21 18 17 16 15 13 8 4 2 0 2 4 6 7 8 8 8 7 7 7 8 10 10 12 13 13 13 15 18 19 20 18 18 18 17 16 16 16 17 25 20 20 17
21 19 17 17 15 12 9 6 4 2 2 5 7 8 9 10 10 9 10 10 10 11 12 13 13 14 15 15 15 16 17 21 24 22 23 22 21 21 22 22 24 22 21
20 18 18 16 15 12 10 8 6 2 3 6 8 10 11 10 10 10 11 11 12 14 14 15 16 16 16 16 16 16 17 18 20 25 26 27 27 24 24 23 25 25 24
22 18 16 15 14 12 10 7 4 3 3 6 8 9 12 11 11 12 13 14 15 15 15 16 16 17 17 17 17 15 16 17 19 20 21 25 27 27 26 24 25 28 29
24 20 18 18 14 11 8 5 4 3 3 5 7 8 10 11 11 12 14 15 16 17 18 19 20 20 20 20 19 18 17 17 16 18 19 20 23 23 25 25 29 30 29
24 20 18 16 13 10 10 8 5 3 2 4 6 8 9 11 12 13 14 15 16 17 19 20 21 22 24 23 22 20 18 17 15 15 15 17 17 19 22 22 21 28 34
28 22 16 14 14 13 12 10 8 3 2 4 5 6 9 11 13 13 14 15 17 18 19 20 22 23 24 27 27 23 19 12 12 10 7 10 13 15 15 18 20 21 24
27 21 18 16 17 15 12 9 7 3 4 4 3 7 10 10 11 13 15 17 19 22 23 24 24 25 26 29 30 30 22 15 8 8 10 11 10 12 13 14 17 18 20
30 23 19 18 18 16 15 12 10 9 6 3 2 6 9 11 12 13 15 17 20 22 23 24 25 25 24 26 25 22 18 18 9 17 23 15 16 17 17 17 16 16 16
30 24 20 17 17 16 15 14 15 11 8 5 2 5 6 9 12 15 18 19 21 22 24 24 23 23 22 22 20 12 10 8 36 8 26 20 25 26 23 23 24 21 21
29 23 20 17 15 14 14 14 14 15 13 8 5 4 5 8 11 15 18 21 22 22 22 21 21 20 19 20 19 15 11 15 11 21 19 39 24 34 31 28 25 22 22
28 23 18 14 13 13 14 14 15 14 11 8 4 3 5 8 11 14 17 19 21 22 21 19 17 17 17 17 17 19 20 20 17 21 32 34 39 33 32 28 34 27 22
27 21 16 14 13 12 12 12 12 12 10 7 5 4 5 8 10 14 16 18 20 21 21 18 16 15 15 14 14 15 17 21 25 26 31 32 33 39 37 27 28 23 28
Wind_Direction
155 165 166 174 186 193 192 200 199 192 184 178 186 174 136 73 32 21 18 24 21 24 33 33 39 7 359 338 330 331 325 309 309 313 319 323 320 320 354 355 345 333 322
156 164 160 169 182 182 188 196 200 189 187 175 182 209 222 359 342 329 339 355 353 360 358 1 346 322 320 311 313 314 318 313 314 318 325 324 327 312 335 349 345 335 326
159 151 153 168 174 176 182 189 190 193 192 192 200 228 264 297 305 302 310 311 314 318 326 338 333 329 324 319 316 317 319 318 321 321 328 317 329 304 320 341 342 332 326
152 154 164 165 163 164 175 184 196 193 198 209 232 255 279 286 290 293 296 296 297 299 304 311 316 318 319 318 320 321 319 316 320 321 318 305 311 303 305 339 335 331 321
154 155 155 151 155 156 163 169 167 167 176 190 222 247 262 278 286 288 288 288 285 286 292 296 304 312 311 311 315 313 312 310 315 317 314 294 302 328 289 330 330 327 318
157 156 156 153 154 159 162 161 163 169 174 190 208 226 244 257 269 281 286 282 284 287 289 290 292 295 304 309 310 311 310 309 311 310 301 292 308 327 297 318 328 321 312
159 157 151 147 152 157 152 160 167 176 187 208 230 249 254 263 268 275 275 292 299 296 293 289 288 291 297 303 307 308 309 310 310 309 301 291 298 298 291 307 322 310 301
157 150 145 149 152 148 145 148 157 171 185 230 247 257 260 254 258 270 293 295 299 297 296 295 295 297 297 297 301 305 308 309 308 309 300 285 292 290 283 297 305 300 289
156 151 151 157 156 153 149 152 163 217 276 278 276 275 273 269 265 272 274 281 288 294 300 303 299 296 296 291 290 293 297 296 295 296 291 284 282 283 272 285 288 287 277
160 158 160 164 160 161 153 133 110 84 61 25 336 292 272 267 268 268 275 282 290 289 285 280 290 283 302 290 280 283 283 279 279 279 283 284 264 266 271 276 275 269 269
168 165 166 166 161 154 135 120 104 76 64 46 33 3 329 306 292 283 278 278 272 273 278 283 285 284 288 307 282 273 282 282 266 260 273 292 266 250 261 262 280 262 261
174 168 171 169 166 156 139 124 94 70 56 44 38 29 17 353 330 308 292 279 274 276 277 278 273 267 272 278 281 273 273 280 270 278 270 265 244 247 264 261 263 264 256
178 175 174 177 177 164 152 130 100 53 40 33 30 23 22 11 355 336 304 288 290 287 284 280 277 274 272 276 276 269 275 271 277 277 264 235 244 251 270 262 263 256 256
185 184 182 184 185 177 175 162 180 19 14 358 18 11 11 8 2 350 325 324 316 304 299 294 293 293 289 285 282 274 264 264 267 271 266 257 246 243 266 263 259 252 254
191 189 186 189 189 184 187 183 193 220 319 337 358 353 4 2 359 350 335 350 334 328 321 316 311 304 301 296 291 284 273 258 255 255 257 261 260 259 257 260 253 251 251
197 198 194 192 192 190 195 188 205 221 320 334 351 342 357 355 356 345 343 350 343 341 339 329 325 326 320 312 306 300 293 283 268 259 257 257 259 259 262 258 253 252 253
198 199 198 197 195 187 198 190 204 252 300 326 343 344 345 352 348 349 347 347 348 346 339 330 328 325 321 316 313 310 301 295 288 277 270 264 261 259 255 256 246 255 258
198 197 202 199 198 192 194 192 206 219 289 322 333 345 348 351 351 350 348 349 350 346 341 337 334 332 328 324 324 317 313 305 298 285 277 268 264 261 259 255 252 252 256
202 204 208 196 196 192 183 173 179 192 288 322 334 341 350 351 356 354 351 350 350 347 344 341 339 335 332 328 327 325 322 313 302 292 275 271 273 269 263 259 258 252 250
204 208 214 204 199 188 174 175 185 191 292 299 317 335 348 349 353 352 352 351 348 349 347 345 341 339 337 333 331 331 330 316 295 288 286 286 268 277 272 269 271 265 256
201 203 204 208 201 189 175 180 188 210 227 260 317 348 339 350 350 349 355 356 353 351 351 348 343 340 339 338 335 332 334 332 300 266 284 299 277 278 279 271 272 277 272
201 198 204 204 198 193 188 186 185 176 188 223 303 337 335 346 345 351 355 354 350 347 345 344 343 342 346 351 353 347 339 335 307 311 289 300 292 290 280 280 283 274 279
193 194 198 193 192 192 189 178 167 174 179 201 271 313 340 340 343 346 346 346 348 346 346 344 344 348 348 351 4 12 344 325 325 325 307 302 312 303 300 295 290 283 275
184 187 185 188 188 186 186 181 180 182 184 200 244 309 322 328 337 337 339 341 342 343 342 342 344 348 351 349 350 339 343 316 321 319 307 315 313 316 314 311 298 286 290
179 181 180 182 182 181 186 182 181 184 192 199 211 252 293 314 324 331 332 335 335 337 338 336 338 342 346 348 346 334 331 328 319 303 306 314 316 320 321 313 315 308 302
169 173 172 180 181 178 183 179 182 184 184 191 194 243 291 309 322 325 328 330 332 332 333 338 341 343 345 345 335 333 328 324 319 316 310 312 312 314 316 325 320 320 313
Height
1515 1519 1522 1523 1524 1525 1526 1528 1527 1527 1527 1527 1528 1527 1526 1525 1526 1526 1526 1526 1525 1524 1524 1524 1524 1524 1524 1524 1524 1523 1523 1523 1522 1522 1521 1520 1520 1519 1518 1517 1516 1515 1513
1515 1518 1520 1522 1524 1525 1526 1527 1528 1527 1528 1527 1527 1527 1526 1525 1525 1525 1526 1526 1525 1525 1525 1523 1523 1524 1523 1524 1524 1523 1522 1522 1522 1521 1520 1519 1519 1518 1518 1517 1515 1514 1513
1515 1516 1519 1522 1523 1525 1526 1527 1527 1527 1527 1527 1526 1526 1526 1525 1524 1525 1525 1525 1524 1525 1524 1523 1523 1523 1523 1523 1523 1522 1521 1521 1521 1520 1520 1518 1518 1518 1518 1517 1515 1514 1513
1514 1516 1519 1521 1523 1524 1525 1526 1527 1526 1526 1526 1526 1525 1525 1524 1524 1524 1524 1524 1524 1524 1523 1523 1523 1522 1522 1523 1522 1521 1521 1521 1520 1518 1519 1518 1517 1517 1518 1516 1515 1514 1514
1515 1518 1520 1521 1522 1523 1525 1526 1526 1525 1525 1524 1525 1525 1524 1524 1523 1523 1523 1522 1522 1522 1522 1522 1522 1522 1522 1521 1521 1520 1520 1519 1519 1518 1518 1517 1517 1516 1517 1516 1515 1514 1513
1516 1518 1520 1521 1521 1523 1524 1524 1524 1524 1523 1523 1523 1523 1522 1522 1522 1521 1521 1521 1521 1521 1521 1521 1521 1521 1521 1520 1520 1519 1519 1518 1518 1518 1517 1516 1516 1515 1516 1515 1515 1514 1513
1515 1517 1519 1521 1523 1523 1521 1522 1523 1523 1522 1522 1522 1522 1522 1522 1521 1520 1519 1519 1519 1519 1519 1519 1519 1519 1519 1518 1519 1518 1518 1517 1517 1517 1516 1515 1515 1515 1514 1514 1513 1513 1513
1516 1517 1519 1521 1522 1521 1521 1521 1521 1522 1521 1521 1521 1521 1521 1520 1519 1518 1519 1518 1517 1517 1517 1517 1517 1517 1517 1517 1516 1516 1516 1516 1515 1515 1515 1514 1514 1513 1513 1513 1513 1512 1512
1516 1518 1519 1520 1520 1521 1520 1520 1520 1520 1520 1520 1520 1520 1520 1519 1518 1517 1517 1516 1516 1515 1515 1514 1514 1514 1514 1514 1514 1514 1513 1513 1512 1513 1513 1512 1512 1512 1511 1511 1511 1511 1511
1515 1517 1519 1519 1519 1520 1519 1519 1519 1519 1519 1519 1519 1518 1518 1517 1517 1515 1515 1515 1514 1513 1512 1511 1511 1511 1510 1510 1510 1510 1510 1509 1509 1509 1510 1510 1510 1509 1510 1510 1510 1510 1509
1513 1516 1517 1518 1518 1518 1518 1518 1518 1518 1519 1518 1517 1517 1517 1517 1515 1514 1513 1513 1512 1511 1511 1510 1510 1509 1509 1508 1507 1507 1507 1506 1506 1506 1506 1507 1507 1507 1507 1508 1509 1508 1508
1509 1512 1514 1516 1517 1517 1516 1518 1517 1517 1518 1518 1517 1516 1515 1516 1514 1512 1511 1510 1509 1510 1509 1508 1507 1506 1505 1505 1504 1504 1504 1503 1503 1503 1503 1503 1505 1505 1505 1505 1506 1506 1507
1507 1509 1511 1513 1514 1515 1515 1516 1517 1517 1517 1517 1516 1514 1514 1514 1513 1511 1509 1507 1508 1507 1506 1505 1504 1503 1502 1501 1501 1500 1501 1500 1499 1500 1500 1499 1501 1502 1502 1502 1503 1504 1504
1504 1507 1508 1510 1512 1512 1513 1514 1516 1516 1516 1516 1514 1514 1513 1512 1512 1510 1507 1506 1505 1503 1502 1501 1500 1500 1499 1498 1496 1496 1496 1496 1497 1497 1496 1497 1497 1498 1499 1498 1498 1500 1501
1499 1504 1507 1508 1509 1511 1512 1513 1514 1514 1514 1514 1513 1512 1512 1511 1510 1509 1507 1505 1503 1501 1500 1499 1497 1496 1495 1494 1493 1491 1491 1491 1491 1492 1493 1493 1494 1495 1496 1494 1495 1495 1496
1499 1502 1506 1508 1509 1510 1510 1511 1512 1512 1512 1512 1511 1511 1510 1509 1508 1506 1505 1503 1501 1499 1497 1496 1494 1493 1492 1490 1489 1489 1487 1486 1486 1486 1487 1488 1489 1489 1490 1491 1490 1491 1491
1496 1499 1503 1507 1507 1509 1510 1509 1511 1511 1510 1510 1509 1509 1509 1508 1506 1504 1503 1501 1499 1497 1496 1494 1492 1490 1488 1488 1486 1485 1483 1482 1481 1481 1481 1481 1481 1482 1483 1485 1485 1486 1486
1492 1495 1497 1500 1504 1507 1509 1509 1509 1510 1510 1509 1508 1508 1507 1507 1505 1503 1502 1500 1498 1496 1494 1492 1489 1486 1485 1482 1481 1480 1479 1477 1476 1475 1474 1474 1475 1475 1476 1477 1479 1480 1481
1489 1492 1493 1496 1499 1504 1505 1506 1508 1509 1509 1509 1508 1507 1507 1506 1505 1503 1501 1499 1498 1495 1493 1491 1488 1485 1481 1479 1477 1477 1475 1472 1470 1469 1468 1469 1469 1469 1469 1469 1469 1470 1473
1481 1486 1492 1494 1497 1499 1501 1504 1506 1507 1508 1508 1507 1506 1506 1504 1504 1503 1501 1498 1496 1494 1492 1489 1487 1483 1479 1475 1472 1472 1470 1468 1466 1464 1464 1464 1464 1464 1464 1464 1463 1463 1463
1479 1483 1487 1489 1492 1496 1499 1502 1505 1507 1506 1506 1506 1506 1505 1503 1503 1502 1500 1497 1494 1492 1489 1487 1484 1481 1478 1473 1468 1466 1466 1464 1463 1462 1461 1461 1460 1460 1459 1459 1459 1458 1458
1474 1479 1482 1486 1489 1491 1494 1499 1503 1504 1505 1506 1504 1504 1503 1502 1501 1501 1499 1497 1494 1491 1488 1485 1482 1480 1478 1473 1471 1467 1463 1462 1461 1461 1458 1457 1456 1455 1455 1455 1454 1453 1453
1471 1475 1479 1484 1486 1488 1490 1494 1499 1501 1502 1506 1505 1503 1501 1500 1500 1498 1496 1494 1492 1489 1486 1484 1481 1478 1477 1476 1475 1476 1472 1468 1458 1454 1456 1453 1453 1450 1450 1449 1447 1446 1446
1468 1473 1477 1481 1484 1487 1489 1492 1494 1497 1498 1500 1502 1503 1502 1500 1498 1497 1495 1492 1489 1488 1485 1482 1480 1477 1476 1475 1475 1476 1477 1474 1468 1453 1451 1449 1447 1444 1442 1441 1439 1441 1439
1465 1470 1475 1481 1484 1486 1488 1490 1492 1494 1496 1498 1499 1501 1500 1498 1497 1495 1494 1491 1489 1487 1485 1482 1479 1477 1475 1475 1474 1473 1472 1470 1469 1465 1450 1445 1441 1441 1438 1436 1434 1431 1432
1464 1470 1474 1477 1481 1485 1488 1489 1491 1492 1493 1496 1497 1498 1498 1496 1495 1493 1492 1490 1488 1485 1483 1480 1478 1476 1475 1475 1475 1473 1470 1468 1464 1461 1452 1447 1443 1436 1433 1432 1430 1427 1425